sat.trackr.live / text

‹ back to catalog

STARLINK-34132

NORAD 64086 · 2025-107Y

PAYLOAD ACTIVE UNKNOWN

§ Identity

Operator
Country
US
Launch date
2025-05-21
Launch site
AFETR
Launch vehicle
Mass (kg)
RCS (m²)

Purposes: comms

External: N2YO · Heavens-Above · Gunter

§ Orbital elements

Epoch: 2026-09-20T04:24:14.279904Z

Period
94.27 min
Inclination
43.0034°
Eccentricity
0.0001748
Mean motion
15.27594212 rev/d
Perigee alt
481.8 km
Apogee alt
484.2 km
Semi-major
6,861.1 km
B*
4.8024e-4
RAAN
183.3288°
Arg perigee
260.2624°
Mean anomaly
99.8031°
Rev number
7,583

§ Raw data

STARLINK-341321 64086U 25107Y   26263.18349861  .00012982  00000+0  48024-3 0  99902 64086  43.0034 183.3288 0001748 260.2624  99.8031 15.27594212 75836

JSON: /api/v1/satellites/64086 · /tle

For live sub-satellite position, see the globe view (requires WebGL).

§ Visibility from observer

Set your observer location to see the next 7 days of passes ≥ 10°. The values pass through the URL so the page stays shareable.

No JS? Fill the form by hand. The geolocation button needs JavaScript.